Hourly Data Report for October 07, 2016

All times are specified in Local Standard Time (LST). Add 1 hour to adjust for Daylight Saving Time where and when it is observed.

BAKER LAKE A
NUNAVUT

64°17'56.000" N
96°04'40.000" W
18.60 m
2300503
71926
YBK

Download Data

Hourly Data (October 2016)
Hourly Data Report for October 7, 2016
Temp Definition
°C
Dew Point Temp Definition
°C
Rel Hum Definition
%
Wind Dir Definition
10's deg

Wind Spd Definition
km/h
Visibility Definition
km
Stn Press Definition
kPa
Hmdx Definition


Wind Chill Definition


Weather Definition


TIME
00:00 Legend Double Dagger -0.7 -3.6 81 28 17 24.1 102.44   -6 Cloudy
01:00 Legend Double Dagger -0.8 -4.0 79 28 16 24.1 102.44   -6 LegendNANA
02:00 Legend Double Dagger -1.1 -3.8 82 30 18 24.1 102.44   -6 LegendNANA
03:00 Legend Double Dagger -1.3 -4.5 79 26 14 24.1 102.45   -6 Mostly Cloudy
04:00 Legend Double Dagger -1.6 -3.6 86 25 12 24.1 102.47   -6 Snow
05:00 Legend Double Dagger -1.6 -4.3 82 21 9 24.1 102.47   -5 Snow
06:00 Legend Double Dagger -1.7 -4.1 84 22 8 24.1 102.48   -5 Snow
07:00 Legend Double Dagger -1.5 -3.7 85 25 11 32.2 102.52   -5 LegendNANA
08:00 Legend Double Dagger -1.5 -3.7 85 25 9 32.2 102.50   -5 Snow
09:00 Legend Double Dagger -1.0 -4.9 75 25 10 32.2 102.49   -5 Cloudy
10:00 Legend Double Dagger -0.2 -5.4 68 26 7 32.2 102.50   -3 LegendNANA
11:00 Legend Double Dagger 0.2 -6.5 61 29 5 32.2 102.50     LegendNANA
12:00 Legend Double Dagger 0.8 -6.3 59 10 5 24.1 102.49     Mostly Cloudy
13:00 Legend Double Dagger 1.8 -6.6 54 35 8 32.2 102.50     LegendNANA
14:00 Legend Double Dagger 1.0 -6.4 58 34 8 32.2 102.50     LegendNANA
15:00 Legend Double Dagger 1.3 -6.3 57 33 7 32.2 102.52     Mainly Clear
16:00 Legend Double Dagger 0.9 -6.0 60 29 5 32.2 102.52     LegendNANA
17:00 Legend Double Dagger -1.0 -5.4 72 32 8 32.2 102.52   -4 LegendNANA
18:00 Legend Double Dagger -2.0 -4.7 82 31 7 32.2 102.54   -5 Mainly Clear
19:00 Legend Double Dagger -2.4 -4.1 88 28 11 24.1 102.53   -6 LegendNANA
20:00 Legend Double Dagger -2.8 -4.7 87 29 10 24.1 102.49   -7 LegendNANA
21:00 Legend Double Dagger -2.3 -4.5 85 29 9 24.1 102.48   -6 Mostly Cloudy
22:00 Legend Double Dagger -2.5 -4.2 88 28 7 24.1 102.45   -5 LegendNANA
23:00 Legend Double Dagger -1.6 -3.5 87 24 7 24.1 102.42   -4 LegendNANA

Notes on Data Quality.

Legend

  • E = Estimated
  • M = Missing
  • NA = Not Available
  • ‡ = Partner data that is not subject to review by the National Climate Archives
Date modified: